YZ-1 R/B, 43584

Orbit data source: Space-Track

YZ-1 R/B, 43584 is space debris originally from a launch on Sun, 29 Jul 2018 UTC launched from the Xichang Space Center, China (XSC). Debris objects in space refer to the collection of defunct objects orbiting the Earth. Examples of debris include non-operational satellites, rocket bodies, and fragments generated from explosions, collisions, or faulty payload assembly.

Loading next visibility...
YZ-1 R/B details
Identifier
43584, 2018-062D
Orbit
Active
Last TLE update2 days ago
Origin
Flag of CNCASC (CN / PRC)
ManufacturerCALT
MissionSpacecraft
Bus & MotorYZ-1, Unknown motor
Mass~5,815 kg wet, ~5,815 kg dry
Launch date (UTC)
2018-07-29 (6 years ago)
Launch vehicleUnknown
Launch site
Xichang Space Center, China (XSC)
Object type
Payload
Rocket body
Debris
Shape & HBRDouble Cone, 4 m
Radar Cross Section5.890 m², Large (>1 m²)

Expand to show TLE details & history

TLE from 2 days ago
0 YZ-1 R/B
1 43584U 18062D   24359.95651879  .00000085  00000-0  00000+0 0  9996
2 43584  54.0656 207.3815 0041587  42.3143 318.0811  1.78871230 41879
Epoch: 2024-12-24T22:57Z
Definitive object data (Epoch: 2024-12-24T22:57:23.223Z)
Latitude0.00002°
Longitude129.08832°
Altitude22,200.155 km
Speed3.741 km/s
True Right ascension13h 49m 34s
True Declination0° 00' 00"
Sunlit
Object was in daylight at TLE epoch
Visualization TLE readout
Latitude-54.07558°
Longitude40.58228°
Altitude22,386.96 km
Speed3.718 km/s
Apparent Right ascension06h 54m 33s
Apparent Declination-62° 30' 59"
Sunlit
Object is in daylight
Visualization observer readout
Local Sidereal Time11:14:41
Azimuth207.45° SW
Elevation-24.825°
Doppler factor1
Orbital elements
Apogee altitude22,407.633 km
Perigee altitude22,169.202 km
Semi-major axis28,666.555 km
Eccentricity0.0041587
Inclination54.0656°
RAAN207.3815°
Arg. of periapsis42.3143°
True anomaly317.76149°
Mean anomaly318.0811°
Eccentric anomaly317.92142°
Mean motion0.44718 °/min
BSTARUnknown
Orbital period805.05 mins
Loading maneuver chart data...
Loading historical data...
Loading historical data...
Loading historical data...
Loading historical data...
Loading historical data...
Loading historical data...
Loading historical data...
Other satellites on launch #62 in the year 2018 (2018-07-29 UTC)

YZ-1 R/B Visibility forecast

Observer location: undefined°, undefined

Span
Click to sort rows by Start time (UTC) header in descending order
Start Az.
Max El. time (UTC)
Max El. Az.
Max El.
End time (UTC)
End Az.
447 mins2024-12-26 14:00:15.787Z193.344° SSW2024-12-26 17:13:15.787Z309.248° NW44.969°2024-12-26 21:27:15.787Z97.038° ESE
|